TimePDT,TemperatureF,Dew PointF,Humidity,Sea Level PressureIn,VisibilityMPH,Wind Direction,Wind SpeedMPH,Gust SpeedMPH,PrecipitationIn,Events,Conditions,WindDirDegrees,DateUTC
12:46 AM,59.0,53.6,82,30.19,8.0,NW,4.6,-,N/A,,Overcast,310,2013-07-19 07:46:00
12:53 AM,59.0,53.1,81,30.19,8.0,North,6.9,-,N/A,,Overcast,350,2013-07-19 07:53:00
1:53 AM,57.9,53.1,84,30.19,8.0,NW,3.5,-,N/A,,Overcast,320,2013-07-19 08:53:00
2:53 AM,57.9,53.1,84,30.19,7.0,NNW,3.5,-,N/A,,Overcast,330,2013-07-19 09:53:00
3:53 AM,57.9,53.1,84,30.19,5.0,NW,3.5,-,N/A,,Haze,310,2013-07-19 10:53:00
4:38 AM,57.2,53.6,88,30.19,2.5,NNW,4.6,-,N/A,,Haze,330,2013-07-19 11:38:00
4:53 AM,57.0,54.0,89,30.19,2.5,NW,3.5,-,N/A,,Overcast,310,2013-07-19 11:53:00
5:14 AM,57.2,53.6,88,30.19,3.0,NNW,3.5,-,N/A,,Overcast,330,2013-07-19 12:14:00
5:53 AM,57.0,53.1,87,30.20,3.0,NW,4.6,-,N/A,,Overcast,310,2013-07-19 12:53:00
6:11 AM,57.2,53.6,88,30.20,2.5,Calm,Calm,-,N/A,,Overcast,0,2013-07-19 13:11:00
6:31 AM,57.2,53.6,88,30.20,4.0,NNW,4.6,-,N/A,,Overcast,330,2013-07-19 13:31:00
6:53 AM,57.0,53.1,87,30.20,2.0,NW,3.5,-,N/A,,Overcast,310,2013-07-19 13:53:00
7:41 AM,57.2,53.6,88,30.21,3.0,Calm,Calm,-,N/A,,Overcast,0,2013-07-19 14:41:00
7:53 AM,57.9,54.0,87,30.21,4.0,Calm,Calm,-,N/A,,Overcast,0,2013-07-19 14:53:00
8:53 AM,57.9,53.1,84,30.21,6.0,NW,4.6,-,N/A,,Haze,320,2013-07-19 15:53:00
9:53 AM,59.0,52.0,78,30.21,8.0,Variable,4.6,-,N/A,,Overcast,0,2013-07-19 16:53:00
10:53 AM,60.1,52.0,75,30.20,8.0,North,5.8,-,N/A,,Overcast,350,2013-07-19 17:53:00
11:06 AM,60.8,51.8,72,30.20,8.0,WNW,6.9,-,N/A,,Overcast,290,2013-07-19 18:06:00
11:53 AM,62.1,52.0,70,30.20,9.0,NNW,3.5,-,N/A,,Overcast,340,2013-07-19 18:53:00
12:53 PM,62.1,53.1,72,30.20,9.0,WNW,6.9,-,N/A,,Overcast,300,2013-07-19 19:53:00
1:53 PM,63.0,53.1,70,30.20,7.0,NNW,8.1,-,N/A,,Overcast,330,2013-07-19 20:53:00
2:53 PM,62.1,53.1,72,30.19,8.0,NW,9.2,-,N/A,,Overcast,320,2013-07-19 21:53:00
3:31 PM,62.6,51.8,68,30.18,8.0,NNW,10.4,17.3,N/A,,Overcast,330,2013-07-19 22:31:00
3:53 PM,62.1,52.0,70,30.18,8.0,NNW,9.2,-,N/A,,Overcast,340,2013-07-19 22:53:00
4:09 PM,62.6,51.8,68,30.18,7.0,WNW,11.5,-,N/A,,Overcast,290,2013-07-19 23:09:00
4:53 PM,60.1,52.0,75,30.17,7.0,NW,8.1,-,N/A,,Overcast,310,2013-07-19 23:53:00
5:53 PM,60.1,52.0,75,30.16,7.0,NW,4.6,-,N/A,,Overcast,320,2013-07-20 00:53:00
6:53 PM,57.9,52.0,81,30.16,6.0,WNW,9.2,-,N/A,,Haze,300,2013-07-20 01:53:00
7:53 PM,57.9,52.0,81,30.15,6.0,NW,9.2,-,N/A,,Haze,320,2013-07-20 02:53:00
8:53 PM,57.0,52.0,83,30.15,5.0,WNW,6.9,-,N/A,,Haze,300,2013-07-20 03:53:00
9:53 PM,57.0,52.0,83,30.16,5.0,NW,4.6,-,N/A,,Haze,320,2013-07-20 04:53:00
10:53 PM,57.0,52.0,83,30.15,5.0,North,3.5,-,N/A,,Haze,350,2013-07-20 05:53:00
11:53 PM,57.0,53.1,87,30.14,4.0,Calm,Calm,-,N/A,,Overcast,0,2013-07-20 06:53:00